Location: Bannatyne
(13.0833°N, 59.5333°W)
Time: 01:54:40
(UTC+00:00)

Explorer 7 - Pass Details

Date: 30 January 2020
Orbit: 485 x 679 km, 50.3° (Epoch: 21 February)

Event Time Altitude Azimuth Distance (km) Brightness Sun altitude
Rises 08:52:45 0° 320° (NW) 2,633 - -22.4°
Reaches altitude 10° 08:54:54 10° 320° (NW) 1,773 - -21.9°
Exits shadow 08:58:21 65° 308° (NW) 608 6.7 -21.1°
Maximum altitude 08:58:56 83° 231° (SW) 561 6.7 -20.9°
Drops below altitude 10° 09:03:15 10° 144° (SE) 1,892 10.2 -19.9°
Sets 09:05:36 0° 144° (SE) 2,827 11.3 -19.4°
